Location: Aurora Center
(43.5271°N, 98.5894°W)
Time: 01:21:29
(UTC-05:00)

BlueWalker 3 - Pass Details

Date: 21 June 2024
Orbit: 480 x 492 km, 53.2° (Epoch: 15 July)

Event Time Altitude Azimuth Distance (km) Brightness Sun altitude
Rises 01:28:28 0° 299° (WNW) 2,539 5.9 -23.0°
Reaches altitude 10° 01:31:08 10° 318° (NW) 1,658 5.2 -23.0°
Maximum altitude 01:33:49 18° 4° (N) 1,223 4.8 -23.0°
Drops below altitude 10° 01:36:30 10° 50° (NE) 1,657 5.0 -23.0°
Sets 01:39:10 0° 70° (ENE) 2,537 5.8 -23.0°
